Wind_Speed
8 8 10 10 10 6 3 13 13 10 10 14 10 9 8 13 10 5 7 6 4 3 2 1 2 5 7 7 7 5 3 3 4 4 4 5 7 8 9 11 11 10 11 9 7 5 6 6 6
12 9 9 11 13 14 11 13 15 12 9 13 13 10 10 9 10 10 9 8 6 5 3 1 3 5 7 7 7 6 5 4 3 3 3 4 5 6 7 8 10 10 9 9 6 5 5 4 3
14 11 9 14 8 14 6 9 14 10 8 11 14 14 11 11 10 10 10 9 7 6 5 4 4 5 7 8 8 6 4 3 2 3 3 3 3 5 7 7 8 9 9 8 6 3 1 1 2
16 14 11 7 4 12 5 5 14 12 11 11 17 17 16 13 13 13 12 10 9 8 7 6 5 5 7 8 9 6 4 2 1 2 3 3 3 3 5 6 6 6 7 7 6 4 3 2 4
16 15 12 8 11 14 21 12 12 11 9 9 13 14 17 18 15 13 12 10 8 7 7 5 6 8 8 9 9 7 5 3 1 1 3 4 4 4 3 5 4 4 2 5 6 5 3 1 2
17 16 13 6 10 22 15 17 17 15 11 11 15 15 14 17 19 15 11 10 8 5 6 7 8 10 10 10 10 6 5 3 2 0 3 4 5 5 4 3 3 3 2 2 3 3 2 2 1
18 19 15 11 13 14 20 16 14 16 15 13 17 15 15 19 19 14 11 10 5 5 6 8 10 12 12 11 10 10 7 5 4 3 3 5 7 8 7 5 3 2 3 3 3 3 3 3 2
21 23 22 16 14 14 24 16 22 19 14 13 15 15 13 14 20 13 11 10 5 5 8 11 12 11 11 11 11 11 10 9 6 6 5 6 7 9 10 9 6 5 4 4 4 4 5 5 5
20 25 24 16 13 17 26 23 19 21 16 14 13 14 15 13 15 13 13 11 8 9 10 9 10 10 11 9 9 10 10 9 7 6 5 6 8 10 11 11 9 7 6 5 4 4 6 8 7
21 24 21 15 14 17 21 26 23 24 22 17 14 12 12 14 15 15 16 13 11 11 11 9 10 10 9 9 8 9 9 7 7 6 7 8 9 9 11 11 11 10 9 7 6 6 6 7 8
20 22 22 22 23 34 9 21 23 25 25 19 14 10 9 12 15 18 18 18 15 15 14 13 12 11 11 10 9 10 10 9 8 8 10 11 10 10 11 11 12 12 11 10 9 9 10 10 11
23 21 27 27 26 40 34 25 32 26 17 24 18 12 9 10 12 16 19 19 19 17 17 17 16 13 13 12 12 11 11 11 11 12 11 11 10 11 11 12 13 14 13 13 13 12 12 13 13
23 22 28 34 40 31 37 36 32 33 29 28 23 17 16 16 16 17 19 22 23 23 22 22 21 17 14 13 12 12 12 12 13 12 11 11 12 12 12 13 15 15 15 15 15 15 14 15 15
22 24 26 34 34 33 37 37 41 32 33 27 25 24 22 22 21 22 24 25 26 26 26 25 22 18 15 14 13 13 13 12 13 13 13 12 12 13 14 14 14 15 16 16 16 16 16 15 15
22 22 25 25 30 36 36 41 44 40 37 30 29 28 27 28 29 29 29 27 29 30 30 31 27 22 19 18 16 15 15 14 14 16 15 15 14 15 15 16 16 16 17 17 16 16 16 17 16
20 23 25 24 28 35 35 37 37 40 40 37 33 32 32 34 34 31 27 26 28 30 32 32 31 27 24 21 20 18 18 18 18 18 19 18 18 19 19 19 19 19 19 20 20 20 21 21 21
19 19 21 21 31 29 35 35 26 35 36 39 38 36 34 32 31 29 25 28 28 30 33 34 34 33 31 27 25 25 25 24 24 23 23 24 23 24 23 23 24 25 24 24 25 25 25 25 26
12 19 21 19 30 28 30 32 42 40 39 42 40 38 36 35 36 35 34 28 28 24 28 36 36 36 35 34 32 31 31 30 31 30 30 30 30 29 30 29 29 29 29 29 30 31 31 31 30
24 28 19 19 21 28 29 27 37 39 41 43 39 42 39 40 37 39 35 33 31 31 30 34 38 38 38 38 34 34 35 36 37 37 37 37 38 38 39 38 38 35 35 36 37 37 37 36 36
29 31 30 26 25 27 28 30 29 38 42 41 47 45 42 42 41 39 40 40 37 36 30 29 37 40 40 38 38 37 38 42 43 43 44 46 46 47 47 48 46 45 42 43 44 44 44 42 41
31 31 30 27 22 29 37 37 34 37 48 49 45 44 44 42 41 40 39 35 35 36 35 34 34 38 41 41 41 41 41 41 44 44 46 49 50 51 53 55 52 55 47 49 52 52 53 51 49
32 30 31 35 32 28 30 35 33 35 37 47 43 45 43 39 39 36 36 35 40 41 40 39 38 39 39 40 41 42 45 44 44 46 45 47 48 50 51 50 48 48 50 54 58 60 61 54 50
27 27 31 28 34 35 33 35 30 27 33 35 40 43 42 40 40 38 40 43 42 43 43 43 42 43 43 44 46 47 46 46 48 44 45 45 43 42 42 41 43 46 51 55 56 58 58 55 44
21 29 27 28 27 36 30 33 35 31 32 32 32 45 42 41 43 41 41 41 41 42 43 41 42 43 43 43 45 46 45 45 44 43 41 42 40 39 43 43 42 44 46 48 51 50 49 48 48
24 24 25 28 29 36 26 32 36 31 34 33 33 36 35 39 45 44 43 44 43 44 45 46 46 45 48 48 48 48 45 44 44 45 44 44 45 47 45 43 47 49 48 46 46 46 47 47 46
24 23 23 31 33 35 30 35 31 33 31 42 41 44 43 34 53 42 41 44 46 48 47 45 46 47 51 53 53 51 50 48 46 46 47 47 45 48 49 44 42 42 47 51 51 51 51 50 50
24 27 28 41 44 40 38 37 34 47 45 42 48 49 40 50 52 43 40 39 41 43 44 46 49 52 53 56 55 54 53 52 51 52 51 48 47 47 47 47 49 50 50 51 53 53 53 55 56
44 36 37 42 41 42 37 36 39 47 48 52 51 50 48 44 38 40 45 45 44 44 45 48 52 53 53 55 57 55 56 57 57 57 56 54 51 51 53 53 54 57 55 54 54 52 48 50 55
35 37 30 40 41 44 45 38 45 54 60 52 40 42 42 36 40 41 43 44 45 47 50 51 54 56 57 58 57 56 57 59 59 61 61 61 59 58 57 56 59 60 62 59 57 55 54 53 56
44 41 52 56 46 38 37 39 63 41 44 54 49 48 49 51 44 45 46 46 48 50 53 55 56 58 60 61 63 63 63 63 64 65 65 67 66 66 67 67 69 70 67 59 56 55 56 57 56
Wind_Direction
220 194 158 169 174 238 282 154 199 212 231 225 225 222 220 217 231 212 212 193 191 206 229 238 354 2 358 349 337 337 351 15 31 55 90 107 102 101 99 99 98 97 97 93 88 83 79 70 59
227 215 156 158 147 183 193 238 214 218 243 239 228 230 230 236 237 221 203 198 208 219 241 280 341 346 355 347 343 345 359 350 3 41 80 106 124 119 103 96 101 101 98 94 90 83 83 74 42
229 224 186 172 209 259 341 218 212 226 252 250 238 236 243 242 239 211 205 205 217 233 258 289 320 332 342 341 336 343 2 17 21 73 98 123 125 119 109 100 106 108 106 105 111 114 110 50 61
229 227 196 202 220 315 275 268 221 237 240 253 249 259 256 236 232 221 215 213 212 231 261 286 304 322 340 337 336 340 354 13 63 111 121 133 128 133 122 116 112 124 133 144 150 165 159 140 103
227 230 220 227 292 253 221 222 225 246 237 266 266 278 252 237 225 218 213 211 234 251 266 286 308 322 328 327 330 339 357 355 52 131 165 154 161 169 174 137 121 123 146 168 169 187 185 234 113
223 220 215 218 247 257 233 238 222 245 255 274 283 285 271 243 225 222 224 223 217 238 279 304 311 317 317 311 314 323 342 352 9 160 192 191 194 194 199 181 133 136 152 205 184 207 216 202 182
220 218 217 216 265 275 256 235 228 249 253 268 292 288 285 257 226 222 222 227 228 260 288 304 307 307 302 296 295 302 308 312 322 308 253 220 208 210 206 204 189 171 168 193 197 223 225 236 241
222 221 214 219 227 245 255 239 240 255 248 273 283 289 282 273 226 223 239 234 222 266 291 301 298 294 292 294 286 283 287 295 299 293 270 256 231 227 220 215 213 201 204 207 203 212 237 241 253
231 225 219 216 234 253 267 240 242 236 249 267 285 299 284 269 234 236 244 239 247 273 293 305 301 297 294 293 285 283 282 279 277 279 272 266 253 234 225 218 221 230 234 235 230 223 229 252 264
239 234 216 211 227 240 271 248 236 236 244 252 268 289 285 256 237 236 242 242 254 273 287 300 316 308 295 286 283 276 276 275 280 272 283 283 265 247 237 231 230 228 241 249 252 257 266 256 255
246 235 213 214 227 218 222 258 234 245 249 258 269 284 283 260 258 253 254 251 260 270 274 285 309 310 293 280 266 264 259 257 260 266 274 278 266 258 252 246 241 236 239 250 254 255 263 268 268
244 234 219 211 242 234 226 235 255 241 236 259 269 271 263 267 273 271 269 262 266 269 269 280 292 304 299 284 270 267 264 266 269 278 274 268 268 265 259 256 254 252 251 251 258 260 261 264 267
250 242 228 225 223 236 229 230 247 238 246 256 265 261 262 265 279 281 281 273 272 270 272 276 286 292 295 283 273 270 271 270 275 276 271 272 276 272 269 268 263 262 262 264 264 264 264 264 266
251 249 240 237 237 237 234 238 240 246 246 250 255 259 261 267 279 281 285 277 272 274 274 278 279 280 281 273 271 273 271 274 277 277 275 270 267 267 270 268 264 268 269 269 269 271 271 269 268
254 250 249 245 241 235 239 235 246 250 248 245 247 250 255 258 270 275 280 273 273 276 276 279 277 273 273 264 264 269 271 272 273 274 274 275 272 272 268 269 271 270 268 266 267 269 270 273 273
258 252 251 251 244 243 246 244 254 253 255 256 251 251 255 259 269 271 268 269 274 272 271 274 274 272 271 261 264 267 271 271 271 271 274 272 271 269 266 266 266 266 263 263 267 268 268 269 273
259 257 253 249 256 247 246 246 237 252 253 255 254 257 258 262 266 266 270 273 275 272 265 266 265 268 269 264 266 271 272 270 268 266 267 267 267 264 264 262 260 260 259 259 264 266 267 269 271
256 273 246 246 256 249 252 244 244 246 241 256 258 250 252 260 267 265 270 261 271 275 268 259 259 261 259 253 256 259 265 265 267 269 267 267 264 263 262 258 256 256 257 259 263 267 269 270 273
219 231 238 228 239 256 251 239 246 243 249 245 246 258 253 261 259 262 265 268 272 274 276 260 254 254 255 257 260 258 262 262 264 262 262 263 264 265 262 258 255 255 256 260 263 265 267 267 270
251 255 249 243 230 236 248 251 229 262 257 254 252 252 250 253 256 259 262 266 270 274 269 265 257 255 256 257 259 262 264 266 268 272 275 276 272 265 262 260 257 260 259 262 263 264 266 264 267
264 261 258 256 251 256 248 252 245 235 256 254 255 255 253 255 257 260 262 262 261 266 261 264 262 259 257 259 261 265 268 271 273 275 275 276 275 273 273 272 272 263 264 265 267 268 268 263 259
266 263 263 257 254 251 267 263 254 252 240 264 262 256 256 254 256 254 254 255 262 261 258 259 263 263 260 259 260 262 264 267 271 273 276 276 276 275 274 273 272 266 267 267 265 264 268 273 270
267 264 259 259 263 258 253 255 252 255 253 255 268 269 259 254 253 250 247 251 254 256 257 261 263 261 261 263 263 264 268 270 273 277 277 277 278 276 274 274 272 267 266 267 271 275 278 283 279
264 269 271 261 257 259 259 255 256 250 255 244 247 267 265 253 254 253 253 253 255 255 257 260 262 262 260 260 262 263 266 269 272 273 276 276 277 282 281 277 275 273 270 269 270 272 275 274 270
274 276 273 268 265 268 269 263 265 255 250 251 236 247 260 269 258 254 256 256 256 255 258 262 262 260 261 262 264 265 268 271 275 274 276 274 277 280 286 278 279 273 274 273 274 275 274 273 272
241 250 258 262 261 265 261 264 277 271 252 239 247 245 247 244 254 260 256 252 253 256 260 260 259 262 261 263 262 265 269 275 273 274 273 277 280 282 277 273 276 280 272 273 274 275 275 274 275
266 253 256 258 257 251 259 256 257 274 254 247 253 257 259 255 266 267 263 261 259 257 256 256 257 259 260 260 260 264 268 271 271 270 273 272 277 277 279 276 274 277 278 276 274 275 278 274 273
259 274 268 260 269 263 261 258 258 253 252 256 254 248 249 252 259 265 261 260 259 259 257 255 255 257 258 258 262 264 267 268 269 270 271 274 276 275 277 276 276 273 278 277 277 277 271 273 269
257 246 263 250 241 253 260 261 251 253 259 261 256 265 260 247 245 256 264 261 258 260 258 254 255 257 258 259 261 264 265 265 268 269 271 274 275 277 277 275 274 272 270 272 271 276 272 268 268
262 256 247 252 247 255 255 259 258 267 264 270 271 264 265 261 237 244 251 255 256 256 256 254 256 258 261 262 262 265 265 267 268 270 271 274 275 277 279 277 270 262 261 261 264 272 265 267 267
Height
5908 5910 5913 5914 5916 5912 5895 5910 5914 5912 5913 5911 5911 5910 5911 5909 5909 5912 5908 5907 5906 5906 5906 5906 5906 5905 5904 5903 5902 5901 5900 5899 5898 5898 5897 5896 5896 5897 5897 5896 5897 5897 5897 5897 5897 5897 5895 5895 5895
5907 5909 5911 5913 5913 5909 5909 5913 5912 5911 5910 5910 5910 5909 5908 5908 5907 5907 5907 5906 5906 5906 5906 5906 5905 5904 5903 5903 5901 5900 5899 5899 5898 5898 5898 5897 5897 5898 5898 5898 5898 5898 5898 5898 5898 5898 5898 5897 5897
5907 5908 5911 5911 5910 5903 5887 5908 5910 5909 5910 5909 5909 5908 5908 5907 5906 5907 5906 5905 5906 5906 5906 5905 5904 5904 5903 5902 5900 5899 5899 5899 5899 5898 5899 5899 5899 5899 5899 5899 5899 5899 5899 5899 5899 5898 5898 5898 5897
5906 5908 5911 5912 5911 5908 5913 5909 5909 5909 5909 5909 5908 5908 5907 5906 5906 5906 5905 5906 5904 5905 5905 5904 5904 5903 5902 5901 5900 5899 5899 5899 5899 5898 5899 5900 5900 5900 5899 5899 5899 5898 5897 5898 5898 5898 5898 5899 5898
5905 5906 5909 5913 5913 5915 5911 5910 5909 5909 5909 5909 5907 5907 5905 5904 5904 5904 5904 5904 5904 5904 5904 5904 5903 5903 5902 5901 5900 5900 5899 5900 5900 5899 5900 5900 5900 5899 5899 5899 5898 5898 5898 5898 5898 5898 5898 5899 5899
5902 5905 5908 5915 5917 5912 5910 5909 5910 5908 5908 5907 5906 5905 5904 5903 5902 5903 5903 5903 5903 5903 5904 5903 5903 5902 5901 5901 5900 5899 5899 5900 5899 5899 5899 5899 5899 5899 5898 5898 5898 5898 5898 5899 5899 5899 5899 5899 5899
5900 5902 5906 5912 5912 5913 5910 5907 5908 5908 5906 5906 5903 5903 5903 5901 5901 5902 5903 5903 5903 5903 5902 5902 5901 5900 5900 5899 5899 5898 5898 5899 5899 5899 5899 5899 5899 5898 5897 5898 5898 5897 5898 5899 5899 5899 5900 5900 5900
5897 5899 5901 5908 5915 5914 5906 5907 5906 5906 5905 5904 5903 5901 5901 5900 5899 5901 5901 5902 5901 5901 5900 5899 5899 5898 5897 5897 5897 5896 5897 5897 5897 5897 5897 5898 5898 5898 5897 5897 5896 5896 5897 5898 5898 5899 5899 5900 5900
5894 5894 5897 5905 5913 5912 5903 5905 5902 5902 5903 5902 5901 5899 5899 5899 5899 5899 5900 5900 5899 5899 5899 5898 5897 5896 5895 5895 5895 5895 5895 5896 5896 5896 5895 5896 5896 5897 5897 5896 5896 5896 5896 5896 5897 5897 5899 5899 5899
5889 5891 5896 5904 5911 5910 5899 5900 5899 5900 5900 5900 5899 5897 5897 5898 5898 5898 5898 5898 5898 5898 5898 5897 5895 5894 5893 5893 5892 5893 5893 5894 5895 5894 5894 5894 5895 5895 5895 5895 5896 5895 5896 5896 5896 5896 5897 5898 5899
5885 5887 5893 5897 5902 5898 5896 5896 5894 5895 5895 5895 5895 5895 5894 5895 5896 5896 5896 5896 5896 5896 5896 5896 5895 5893 5892 5892 5891 5891 5891 5892 5892 5892 5892 5893 5893 5893 5894 5894 5895 5895 5894 5895 5895 5895 5896 5896 5896
5879 5882 5885 5888 5893 5887 5893 5895 5890 5892 5895 5891 5892 5892 5892 5893 5893 5893 5893 5893 5893 5894 5894 5893 5893 5892 5891 5890 5889 5889 5889 5891 5891 5891 5891 5890 5890 5891 5892 5892 5893 5893 5894 5893 5893 5893 5893 5894 5894
5875 5877 5878 5879 5879 5881 5884 5887 5889 5884 5889 5888 5889 5889 5889 5890 5890 5890 5891 5891 5891 5891 5891 5890 5890 5890 5889 5889 5888 5888 5888 5888 5889 5889 5889 5889 5888 5889 5890 5890 5891 5891 5891 5892 5891 5891 5892 5892 5892
5870 5872 5873 5874 5875 5877 5878 5882 5879 5881 5883 5885 5886 5886 5886 5886 5886 5887 5887 5887 5887 5887 5887 5887 5887 5887 5886 5886 5886 5885 5886 5885 5886 5887 5887 5886 5886 5886 5887 5888 5888 5888 5888 5888 5888 5889 5889 5889 5889
5866 5867 5867 5869 5870 5871 5872 5874 5871 5873 5877 5881 5882 5882 5882 5883 5882 5882 5882 5883 5882 5882 5882 5881 5882 5882 5882 5882 5882 5882 5882 5882 5883 5884 5884 5884 5883 5883 5884 5884 5885 5885 5885 5884 5885 5885 5885 5886 5885
5861 5861 5861 5863 5864 5864 5865 5867 5869 5868 5872 5874 5877 5878 5878 5878 5878 5878 5877 5878 5878 5878 5877 5877 5877 5877 5878 5878 5878 5878 5878 5879 5879 5880 5880 5880 5880 5880 5881 5881 5881 5881 5881 5881 5881 5881 5881 5881 5881
5856 5857 5857 5859 5855 5859 5859 5862 5867 5863 5864 5864 5868 5870 5871 5872 5872 5872 5873 5873 5873 5873 5873 5873 5873 5873 5873 5873 5874 5874 5874 5874 5875 5875 5875 5875 5876 5876 5876 5876 5876 5876 5876 5876 5876 5876 5876 5876 5875
5854 5853 5853 5856 5852 5851 5852 5856 5850 5855 5858 5858 5859 5863 5864 5866 5865 5866 5867 5867 5868 5868 5868 5867 5868 5869 5869 5868 5868 5869 5870 5870 5870 5870 5870 5870 5871 5871 5871 5871 5870 5870 5870 5871 5870 5870 5870 5870 5870
5845 5845 5849 5852 5852 5848 5847 5851 5847 5849 5849 5848 5851 5854 5857 5858 5858 5858 5860 5861 5861 5861 5862 5862 5863 5862 5862 5863 5863 5864 5865 5865 5864 5864 5864 5865 5865 5864 5864 5865 5863 5863 5864 5864 5864 5863 5863 5863 5862
5837 5837 5839 5841 5844 5843 5844 5842 5849 5842 5844 5842 5844 5844 5848 5849 5850 5852 5853 5854 5854 5853 5855 5856 5856 5856 5856 5857 5856 5857 5858 5858 5857 5857 5857 5857 5856 5856 5856 5855 5856 5854 5855 5855 5855 5855 5854 5855 5854
5831 5831 5832 5834 5836 5834 5833 5834 5836 5840 5832 5835 5835 5836 5837 5840 5842 5845 5845 5846 5848 5848 5848 5848 5848 5849 5849 5850 5849 5849 5849 5849 5848 5848 5847 5847 5846 5846 5846 5846 5846 5846 5845 5845 5845 5845 5844 5844 5844
5823 5824 5824 5824 5825 5827 5828 5825 5828 5829 5832 5823 5827 5826 5827 5830 5831 5836 5837 5838 5839 5839 5840 5841 5841 5842 5842 5841 5843 5842 5841 5842 5840 5839 5838 5837 5836 5835 5835 5834 5834 5834 5835 5835 5833 5832 5833 5829 5831
5815 5815 5816 5817 5816 5817 5819 5819 5823 5827 5823 5823 5817 5820 5820 5820 5821 5824 5827 5829 5829 5830 5832 5833 5834 5834 5835 5834 5834 5833 5833 5832 5831 5830 5828 5827 5826 5825 5824 5823 5823 5822 5823 5822 5821 5821 5820 5819 5819
5809 5807 5808 5807 5809 5805 5811 5812 5813 5818 5817 5818 5820 5808 5811 5810 5809 5812 5815 5818 5819 5821 5821 5822 5822 5823 5823 5823 5823 5823 5822 5822 5821 5820 5818 5817 5816 5816 5815 5813 5813 5812 5811 5810 5810 5809 5808 5808 5809
5803 5804 5803 5804 5804 5798 5806 5804 5802 5807 5808 5809 5806 5809 5803 5800 5796 5800 5804 5807 5808 5809 5810 5810 5811 5812 5812 5812 5812 5812 5812 5811 5811 5809 5809 5808 5807 5806 5805 5803 5803 5801 5801 5800 5799 5798 5798 5797 5796
5795 5797 5795 5794 5796 5797 5802 5797 5798 5794 5796 5791 5793 5795 5797 5797 5785 5788 5791 5794 5796 5796 5797 5798 5800 5800 5800 5800 5801 5801 5801 5800 5799 5799 5797 5796 5796 5795 5793 5792 5791 5789 5789 5788 5787 5787 5786 5784 5783
5784 5785 5789 5782 5780 5778 5785 5789 5792 5778 5777 5778 5779 5780 5785 5779 5776 5778 5779 5781 5782 5783 5785 5787 5787 5787 5788 5788 5789 5789 5789 5788 5788 5786 5786 5785 5784 5782 5781 5780 5779 5778 5777 5775 5774 5772 5771 5770 5769
5774 5777 5777 5777 5769 5768 5772 5778 5776 5760 5760 5764 5765 5764 5765 5766 5766 5767 5768 5769 5770 5772 5773 5774 5774 5774 5776 5776 5776 5776 5776 5776 5775 5774 5773 5772 5772 5770 5769 5767 5766 5765 5764 5762 5760 5759 5757 5756 5755
5761 5762 5758 5758 5755 5754 5754 5761 5754 5752 5746 5751 5753 5753 5752 5752 5752 5754 5757 5758 5759 5760 5761 5761 5762 5763 5763 5763 5763 5763 5763 5761 5761 5760 5760 5759 5758 5757 5755 5752 5751 5749 5748 5747 5746 5745 5744 5743 5742
5745 5746 5740 5741 5745 5742 5745 5747 5741 5735 5732 5736 5738 5740 5739 5737 5735 5740 5744 5745 5746 5746 5747 5748 5750 5751 5752 5751 5749 5749 5748 5747 5746 5745 5744 5743 5742 5742 5739 5736 5733 5730 5730 5730 5729 5730 5729 5729 5728